SHU737 UNKL-UNNT

Flight info

Callsign SHU737
Flight time N/A
Altitude 36000
Route APRUS2F APRUS B926 NATIR NATIR1M
Aircraft A319/M-SDE3FGHIRWY/LB1

Departure

Time 2026-05-01 14:48
Airport Krasnoyarsk International Airport (UNKL)

Arrival

Time N/A
Airport Novosibirsk Tolmachevo Airport (UNNT)
Time Latitude Longitude Altitude Speed Heading
2026-05-01 14:04 56.17902 92.48746 951 ft 0 kts 23°
2026-05-01 14:30 56.17882 92.48731 950 ft 3 kts 19°
2026-05-01 14:30 56.17863 92.48721 949 ft 3 kts
2026-05-01 14:30 56.17847 92.48725 949 ft 3 kts 309°
2026-05-01 14:31 56.17843 92.48734 951 ft 0 kts 292°
2026-05-01 14:35 56.17844 92.48732 951 ft 0 kts 292°
2026-05-01 14:36 56.17846 92.48710 951 ft 4 kts 271°
2026-05-01 14:36 56.17841 92.48634 949 ft 9 kts 280°
2026-05-01 14:36 56.17854 92.48503 951 ft 13 kts 252°
2026-05-01 14:36 56.17775 92.48409 951 ft 12 kts 201°
2026-05-01 14:37 56.17713 92.48496 949 ft 15 kts 112°
2026-05-01 14:37 56.17667 92.48695 951 ft 20 kts 115°
2026-05-01 14:37 56.17605 92.48951 951 ft 25 kts 113°
2026-05-01 14:37 56.17532 92.49265 951 ft 30 kts 112°
2026-05-01 14:38 56.17458 92.49570 950 ft 25 kts 111°
2026-05-01 14:38 56.17381 92.49887 949 ft 30 kts 113°
2026-05-01 14:38 56.17300 92.50226 951 ft 22 kts 113°
2026-05-01 14:38 56.17242 92.50471 950 ft 21 kts 113°
2026-05-01 14:39 56.17182 92.50722 949 ft 24 kts 113°
2026-05-01 14:39 56.17111 92.51024 949 ft 29 kts 112°
2026-05-01 14:39 56.17033 92.51358 951 ft 28 kts 113°
2026-05-01 14:39 56.16959 92.51670 951 ft 25 kts 113°
2026-05-01 14:40 56.16894 92.51918 949 ft 11 kts 126°
2026-05-01 14:40 56.16841 92.51969 951 ft 1 kts 163°
2026-05-01 14:40 56.16818 92.51983 951 ft 6 kts 161°
2026-05-01 14:40 56.16777 92.52011 951 ft 0 kts 158°
2026-05-01 14:43 56.16761 92.52023 951 ft 5 kts 158°
2026-05-01 14:43 56.16713 92.52055 951 ft 10 kts 160°
2026-05-01 14:43 56.16662 92.51998 952 ft 12 kts 265°
2026-05-01 14:44 56.16666 92.51960 952 ft 0 kts 288°
2026-05-01 14:48 56.16713 92.51709 952 ft 59 kts 288°
2026-05-01 14:48 56.16925 92.50597 952 ft 126 kts 289°
2026-05-01 14:48 56.17841 92.47270 1864 ft 152 kts 298°
2026-05-01 14:49 56.18808 92.43254 2580 ft 199 kts 292°
2026-05-01 14:49 56.19988 92.38103 3508 ft 247 kts 292°
2026-05-01 14:50 56.20903 92.34162 4513 ft 264 kts 292°
2026-05-01 14:50 56.21341 92.25558 7124 ft 271 kts 251°
2026-05-01 14:51 56.20609 92.22425 8103 ft 273 kts 246°
2026-05-01 14:51 56.18971 92.16221 8947 ft 278 kts 247°
2026-05-01 14:52 56.17421 92.09808 10284 ft 287 kts 250°
2026-05-01 14:52 56.16644 92.06363 10639 ft 309 kts 250°
2026-05-01 14:52 56.15037 91.98984 12103 ft 322 kts 251°
2026-05-01 14:53 56.14222 91.95206 12928 ft 326 kts 252°
2026-05-01 14:53 56.13401 91.91393 13743 ft 330 kts 252°
2026-05-01 14:53 56.12569 91.87537 14472 ft 333 kts 252°
2026-05-01 14:53 56.11727 91.83644 15191 ft 336 kts 252°
2026-05-01 14:54 56.10876 91.79722 15892 ft 339 kts 252°
2026-05-01 14:54 56.10015 91.75767 16614 ft 342 kts 252°
2026-05-01 14:54 56.09141 91.71775 17319 ft 346 kts 252°
2026-05-01 14:54 56.08262 91.67761 18047 ft 348 kts 253°
2026-05-01 14:55 56.07371 91.63711 18716 ft 350 kts 253°
2026-05-01 14:55 56.06473 91.59633 19315 ft 354 kts 252°
2026-05-01 14:55 56.05565 91.55524 19910 ft 357 kts 252°
2026-05-01 14:55 56.04645 91.51376 20499 ft 360 kts 252°
2026-05-01 14:56 56.04019 91.48554 20902 ft 363 kts 252°
2026-05-01 14:56 56.03095 91.44399 21451 ft 366 kts 252°
2026-05-01 14:56 56.02150 91.40149 22024 ft 370 kts 252°
2026-05-01 14:56 56.01179 91.35796 22611 ft 373 kts 252°
2026-05-01 14:57 56.00226 91.31530 23186 ft 377 kts 252°
2026-05-01 14:57 55.98349 91.22723 24211 ft 380 kts 258°
2026-05-01 14:57 55.97784 91.18115 24685 ft 381 kts 262°
2026-05-01 14:58 55.97250 91.13472 25165 ft 383 kts 262°
2026-05-01 14:58 55.96707 91.08811 25619 ft 384 kts 262°
2026-05-01 14:58 55.96147 91.04063 26100 ft 386 kts 262°
2026-05-01 14:58 55.95597 90.99422 26548 ft 388 kts 262°
2026-05-01 14:59 55.95034 90.94703 26987 ft 391 kts 262°
2026-05-01 14:59 55.94465 90.89946 27424 ft 393 kts 262°
2026-05-01 14:59 55.93892 90.85169 27864 ft 395 kts 262°
2026-05-01 14:59 55.93308 90.80295 28317 ft 397 kts 262°
2026-05-01 15:00 55.92153 90.70706 29168 ft 402 kts 262°
2026-05-01 15:00 55.91557 90.65796 29580 ft 404 kts 262°
2026-05-01 15:00 55.90961 90.60903 29991 ft 406 kts 262°
2026-05-01 15:01 55.90356 90.55957 30348 ft 408 kts 262°
2026-05-01 15:01 55.89748 90.50999 30677 ft 411 kts 262°
2026-05-01 15:01 55.89138 90.46029 31010 ft 412 kts 262°
2026-05-01 15:01 55.88521 90.41019 31342 ft 414 kts 262°
2026-05-01 15:02 55.87900 90.36003 31666 ft 416 kts 262°
2026-05-01 15:02 55.87478 90.32605 31910 ft 416 kts 262°
2026-05-01 15:02 55.86652 90.25970 32534 ft 413 kts 262°
2026-05-01 15:02 55.86028 90.20988 33007 ft 411 kts 262°
2026-05-01 15:03 55.85405 90.16027 33479 ft 410 kts 262°
2026-05-01 15:03 55.84781 90.11093 33960 ft 408 kts 263°
2026-05-01 15:03 55.84157 90.06183 34391 ft 406 kts 263°
2026-05-01 15:03 55.83535 90.01285 34771 ft 405 kts 262°
2026-05-01 15:04 55.82912 89.96411 35104 ft 405 kts 262°
2026-05-01 15:04 55.82288 89.91539 35449 ft 404 kts 262°
2026-05-01 15:04 55.81662 89.86646 35784 ft 404 kts 262°
2026-05-01 15:04 55.81042 89.81779 36044 ft 405 kts 262°
2026-05-01 15:05 55.80417 89.76921 36092 ft 400 kts 262°
2026-05-01 15:05 55.79169 89.67361 36093 ft 396 kts 262°
2026-05-01 15:06 55.77929 89.57854 36088 ft 396 kts 262°
2026-05-01 15:06 55.76673 89.48277 36093 ft 398 kts 262°
2026-05-01 15:07 55.75406 89.38718 36091 ft 398 kts 262°
2026-05-01 15:07 55.74129 89.29160 36093 ft 398 kts 262°
2026-05-01 15:08 55.72850 89.19605 36084 ft 398 kts 262°
2026-05-01 15:08 55.71558 89.10061 36084 ft 398 kts 262°
2026-05-01 15:09 55.70259 89.00527 36085 ft 398 kts 262°
2026-05-01 15:09 55.68969 88.91060 36088 ft 398 kts 262°
2026-05-01 15:10 55.67678 88.81555 36065 ft 397 kts 261°
2026-05-01 15:10 55.65709 88.67273 36077 ft 397 kts 261°
2026-05-01 15:11 55.63748 88.53160 36076 ft 397 kts 261°
2026-05-01 15:12 55.62429 88.43672 36080 ft 397 kts 261°
2026-05-01 15:12 55.60416 88.29440 36075 ft 397 kts 260°
2026-05-01 15:14 55.57032 88.05801 36085 ft 396 kts 260°
2026-05-01 15:14 55.54992 87.91662 36080 ft 396 kts 260°
2026-05-01 15:15 55.52234 87.72842 36062 ft 396 kts 259°
2026-05-01 15:16 55.49455 87.54047 36035 ft 396 kts 259°
2026-05-01 15:18 55.45918 87.30551 36042 ft 399 kts 258°
2026-05-01 15:19 55.43028 87.11652 36039 ft 400 kts 258°
2026-05-01 15:19 55.40839 86.97451 36037 ft 400 kts 258°
2026-05-01 15:20 55.38637 86.83283 36038 ft 401 kts 258°
2026-05-01 15:21 55.37156 86.73822 36039 ft 401 kts 257°
2026-05-01 15:21 55.35667 86.64373 36022 ft 401 kts 257°
2026-05-01 15:22 55.33417 86.50181 36027 ft 403 kts 257°
2026-05-01 15:22 55.31902 86.40711 36031 ft 403 kts 257°
2026-05-01 15:23 55.30371 86.31243 36032 ft 403 kts 257°
2026-05-01 15:23 55.28839 86.21783 36049 ft 404 kts 257°
2026-05-01 15:24 55.27315 86.12292 36046 ft 403 kts 259°
2026-05-01 15:24 55.26683 86.02568 36049 ft 402 kts 266°
2026-05-01 15:25 55.26220 85.92797 36050 ft 402 kts 266°
2026-05-01 15:25 55.25738 85.83022 35917 ft 402 kts 266°
2026-05-01 15:26 55.25495 85.78166 35328 ft 401 kts 266°
2026-05-01 15:26 55.25250 85.73298 34787 ft 399 kts 266°
2026-05-01 15:26 55.25006 85.68482 34334 ft 395 kts 266°
2026-05-01 15:26 55.24763 85.63706 33872 ft 391 kts 266°
2026-05-01 15:27 55.24522 85.58987 33378 ft 388 kts 266°
2026-05-01 15:27 55.24283 85.54303 32874 ft 384 kts 265°
2026-05-01 15:27 55.24046 85.49656 32374 ft 381 kts 265°
2026-05-01 15:28 55.23570 85.40484 31444 ft 375 kts 265°
2026-05-01 15:28 55.23332 85.35965 30980 ft 372 kts 265°
2026-05-01 15:28 55.23094 85.31470 30539 ft 369 kts 265°
2026-05-01 15:29 55.22620 85.22603 29627 ft 363 kts 265°
2026-05-01 15:29 55.22384 85.18211 29140 ft 361 kts 264°
2026-05-01 15:29 55.21904 85.09528 28236 ft 356 kts 264°
2026-05-01 15:30 55.21420 85.00966 27337 ft 352 kts 263°
2026-05-01 15:31 55.20469 84.84077 25531 ft 344 kts 263°
2026-05-01 15:31 55.19989 84.75784 24648 ft 341 kts 263°
2026-05-01 15:32 55.19291 84.67662 23767 ft 336 kts 253°
2026-05-01 15:32 55.17970 84.59919 22827 ft 332 kts 252°
2026-05-01 15:33 55.15987 84.48459 21518 ft 324 kts 252°
2026-05-01 15:34 55.14037 84.37263 20277 ft 318 kts 252°